Погода в Сааре де лос Атунесе

Испания     36°08′11″N   5°50′47″W
темп.,
°C
ветер,
м/с
пор.,
м/с
влажн.,
%
обл.,
%
осадки,
мм/ч
давл.,
гПа
погр.,
м
14 апреля, ср
ср1423:00+14в71581100 0.0 1018645
02:00+14в61481100 0.0 1018813
05:00+14в81578100 0.0 1014586
08:00+14в81478100 0.0 1015502
11:00+15в91479100 0.1 1015576
14:00+13вюв71290100 1.8 1016636
17:00+12в61393100 1.9 1014512
20:00+13в71489100 1.9 1013586
15 апреля, чт
чт1523:00+13в71390100 0.0 1014659
02:00+14в61389100 0.0 1013722
05:00+14в61390100 0.0 1012696
08:00+13в4993100 0.3 1012447
11:00+15в598698 0.0 1013717
14:00+16в5878100 0.1 1013783
17:00+16в477577 0.1 1012842
20:00+14в488471 0.1 1014637
16 апреля, пт
пт1623:00+13в4109096 0.0 1015611
02:00+13в41085100 0.0 1015658
05:00+13в4992100 0.3 1014629
08:00+13всв389299 0.4 1015483
11:00+15в467628 0.1 1017748
14:00+20в555523 0.1 10161434
17:00+19вюв435651 0.0 10151151
20:00+17в22685 0.0 1016303
17 апреля, сб
сб1723:00+12св11925 0.0 101811
02:00+11всв11935 0.0 101711
05:00+11в119227 0.0 101612
08:00+11вюв00917 0.0 101612
11:00+18з22685 0.0 1017571
14:00+23зсз46404 0.0 10161971
17:00+23ссз46240 0.0 10161787
20:00+19с36390 0.0 1017196
18 апреля, вс
вс1823:00+13в22700 0.0 102018
02:00+12в410936 0.0 1021317
05:00+12в5109022 0.0 1021332
08:00+11в498918 0.0 1021259
11:00+17в465586 0.0 1022689
14:00+20в3438100 0.0 10211178
17:00+21в2337100 0.0 10201194
20:00+17юв225999 0.0 1020122